Powrót do katalogu

DELTA 1 DEB

AktywnySSO
NORAD 2223·DEBRIS·🇺🇸 United States

Wystrzelony Feb 28, 1966 z Cape Canaveral Space Force Station

Loading…

Następne Przeloty (najbliższe 24 godziny)

TLE

ŚwieżeSource: Space-Track

Epoka: Sep 14, 2026, 00:26 UTC

1 02223U 66016C   26257.01858163 -.00000031  00000-0  46742-4 0  9994
2 02223 100.7252 282.3229 0093925  22.7355   7.1861 12.87776937838399

Śledź DELTA 1 DEB w czasie rzeczywistym z AllMySat

Download on the App Store